[[{"header":{"parameterUnit":"m.s-1","parameterCategory":1,"la1":30.2991,"la2":30.254,"lo1":-89.0895,"lo2":-89.0444,"dx":0.0017,"dy":0.0017,"nx":28,"ny":28,"refTime":"2022-11-26T09:00:00:Z","depth":0,"parameterNumber":2,"parameterNumberName":"U-component_of_WINDS"},"data":[0,0,0,0,0,0,0,0,0,0,0,0,0,0,0,0,0,0,0,0,0,0,0,0,0,0,0,0,0,0,0,0,0,0,0,0,0,0,0,0,0,0,0,0,0,0,0,0,0,0,0,0,0,0,0,0,0,0,5.3668,5.3669,0,5.3808,5.381,5.3811,5.3783,5.378,5.3778,5.3775,5.3922,5.3928,5.3935,0,0,0,0,0,0,0,0,0,0,0,0,0,5.338,5.3386,5.3668,5.367,5.3671,5.3808,5.381,5.3812,5.3783,5.378,5.3777,5.3774,5.392,5.3928,5.3935,0,0,0,0,0,0,0,0,0,0,0,0,0,5.3511,5.3387,5.3668,5.3674,5.3676,5.3807,5.381,5.3812,5.3784,5.378,5.3776,5.3773,5.3918,5.3927,5.3936,5.4072,0,0,5.3965,5.3969,0,0,0,0,0,0,0,0,5.3504,5.3522,5.3671,5.3673,5.3676,5.3774,5.3762,5.3899,5.3785,5.3743,5.3775,5.3771,5.3876,5.3889,5.3924,5.4079,5.4085,5.3966,5.3972,5.3976,5.3978,0,0,0,0,0,0,0,5.3495,5.3516,5.3723,5.3673,5.3676,5.3671,5.3685,5.3788,5.383,5.3746,5.3745,5.3761,5.3877,5.3915,5.3927,5.4087,5.3966,5.3974,5.398,5.3984,5.4363,5.4367,0,0,0,0,0,0,5.3483,5.3508,5.3719,5.3728,5.3578,5.3679,5.3695,5.3746,5.3828,5.3837,5.3765,5.376,5.39,5.3916,5.3932,5.4098,5.3976,5.3985,5.399,5.4358,5.4364,5.4369,0,0,0,0,0,0,5.3477,5.3502,5.3713,5.3618,5.3644,5.3688,5.3746,5.3751,5.3789,5.3842,5.385,5.3795,5.3898,5.3919,5.4038,5.4102,5.3989,5.3997,5.4353,5.436,5.4366,5.4429,0,0,0,0,0,0,5.3469,5.35,5.3551,5.3619,5.3649,5.3815,5.375,5.3757,5.3805,5.38,5.3873,5.3882,5.3897,5.4024,5.4047,5.4113,5.4005,5.4348,5.4356,5.4364,5.4422,5.4437,5.445,0,0,0,0,0,5.3459,5.3563,5.3553,5.3579,5.3713,5.3819,5.3837,5.3851,5.381,5.3863,5.3897,5.3879,5.4091,5.4036,5.4062,5.4132,5.4344,5.4354,5.4363,5.4415,5.4434,5.445,0,0,0,0,0,0,5.3502,5.3572,5.3562,5.3692,5.375,5.3814,5.388,5.387,5.3942,5.3934,5.395,5.3966,5.4088,5.4122,5.4059,5.4269,5.4212,5.4228,5.4242,5.4261,5.4275,5.4265,5.4013,0,0,0,0,0,5.3527,5.3606,5.3663,5.3772,5.3801,5.3836,5.3882,5.3888,5.3949,5.3974,5.4017,5.4078,5.4159,5.4211,5.4288,5.4426,5.4443,5.4488,5.4502,5.4514,5.4527,5.4605,5.4626,5.4401,5.4401,5.4401,0,0,5.3579,5.3627,5.3676,5.3782,5.3827,5.391,5.3857,5.3946,5.4008,5.3988,5.4103,5.4137,5.4206,5.4336,5.4395,5.4368,5.4593,5.4526,5.4535,5.4543,5.4617,5.4638,5.4657,5.4408,5.4407,5.4405,0,0,5.3716,5.3759,5.3856,5.3902,5.3972,5.3995,5.4018,5.4084,5.4106,5.4221,5.4209,5.4283,5.4421,5.4472,5.4515,5.4673,5.466,5.4698,5.4774,5.4849,5.4867,5.4883,5.4941,5.4962,5.4711,5.4711,5.4712,0,5.3772,5.3895,5.3907,5.3998,5.4046,5.4031,5.413,5.4175,5.4266,5.4301,5.4269,5.4443,5.4488,5.463,5.4669,5.4704,5.4733,5.469,5.4863,5.4879,5.4894,5.495,5.4972,5.4716,5.4715,5.4715,5.4714,0,5.3961,5.4047,5.4117,5.4205,5.4261,5.4355,5.4383,5.4438,5.444,5.4467,5.4586,5.464,5.4728,5.4762,5.4765,5.4906,5.4887,5.4859,5.4802,5.492,5.4973,5.4994,5.4722,5.472,5.4719,5.4718,0,0,5.413,5.4224,5.425,5.429,5.4367,5.4434,5.4529,5.4614,5.4662,5.4726,5.4808,5.4925,5.4901,5.495,5.4959,5.5025,5.5149,5.4989,5.4991,5.5018,5.531,5.5331,5.5355,5.514,5.5144,5.5148,5.5304,0,5.4276,5.4441,5.4455,5.4605,5.4686,5.4673,5.4756,5.4813,5.4841,5.4914,5.4945,5.5029,5.4989,5.5019,5.5084,5.512,5.5208,5.5109,5.5218,5.5222,5.5202,5.5383,5.5405,5.5551,5.5325,5.5328,5.5331,0,5.4467,5.4537,5.4694,5.4761,5.4795,5.4869,5.495,5.502,5.5084,5.51,5.5156,5.5156,5.5256,5.5194,5.5333,5.5265,5.5311,5.5336,5.5342,5.5353,5.5284,5.5401,5.5597,5.562,5.5363,5.5361,5.5358,0,5.4577,5.471,5.4822,5.4857,5.4936,5.4989,5.5025,5.5086,5.5137,5.5208,5.5242,5.5324,5.5369,5.5433,5.5456,5.5409,5.5595,5.5535,5.5612,5.5612,5.5653,5.565,5.586,5.568,5.5679,5.5679,5.5679,0,5.4739,5.4836,5.4872,5.4941,5.5051,5.5067,5.5175,5.5208,5.5263,5.534,5.5334,5.5406,5.5431,5.5508,5.5527,5.564,5.566,5.5677,5.5681,5.5678,5.5676,5.5709,5.57,5.5685,5.5684,5.5682,5.5681,0,5.488,5.4907,5.5029,5.5095,5.5113,5.5192,5.5249,5.5316,5.5343,5.544,5.5464,5.5506,5.5597,5.5626,5.5735,5.5748,5.5881,5.5875,5.5858,5.5859,5.5936,5.5929,5.6176,5.621,5.6005,5.6007,5.6009,0,5.4982,5.5057,5.513,5.5181,5.5219,5.53,5.5352,5.5371,5.5426,5.5507,5.5565,5.5655,5.5727,5.5873,5.5915,5.5999,5.5997,5.6077,5.6009,5.6005,5.6,5.5996,5.6004,5.6091,5.6093,5.6094,5.6096,0,5.5161,5.5171,5.5246,5.5327,5.5389,5.5453,5.5516,5.5558,5.5586,5.5649,5.5741,5.5797,5.5909,5.5999,5.6085,5.6124,5.6116,5.6117,5.614,5.6138,5.6126,5.6136,5.5895,5.6111,5.611,5.6109,5.6108,5.6107,5.5287,5.5354,5.5416,5.55,5.5549,5.5608,5.5675,5.571,5.5787,5.5878,5.5885,5.5986,5.605,5.6165,5.6208,5.6288,5.6265,5.6298,5.6306,5.6314,5.6321,5.6112,5.6304,5.6303,5.6303,5.6303,5.6302,0,5.5467,5.5507,5.5584,5.5671,5.5738,5.5723,5.5792,5.5849,5.5937,5.5997,5.6069,5.6176,5.6263,5.6312,5.64,5.6455,5.6453,5.6477,5.6474,5.6484,5.6336,5.6308,5.6477,5.6477,5.6477,5.6477,5.6477,5.6477,5.5569,5.5681,5.5699,5.5836,5.5876,5.5973,5.6014,5.6069,5.6117,5.6236,5.6309,5.6339,5.6396,5.6488,5.6568,5.658,5.6614,5.664,5.665,5.6512,5.6494,5.6477,5.6451,5.6647,5.6647,5.6792,5.6793,5.6794]},{"header":{"parameterUnit":"m.s-1","parameterCategory":1,"la1":30.2991,"la2":30.254,"lo1":-89.0895,"lo2":-89.0444,"dx":0.0017,"dy":0.0017,"nx":28,"ny":28,"refTime":"2022-11-26T09:00:00:Z","depth":0,"parameterNumber":3,"parameterNumberName":"V-component_of_WINDS"},"data":[0,0,0,0,0,0,0,0,0,0,0,0,0,0,0,0,0,0,0,0,0,0,0,0,0,0,0,0,0,0,0,0,0,0,0,0,0,0,0,0,0,0,0,0,0,0,0,0,0,0,0,0,0,0,0,0,0,0,-0.0511,-0.0512,0,-0.0607,-0.0608,-0.0609,-0.0645,-0.0645,-0.0645,-0.0644,-0.0747,-0.075,-0.0753,0,0,0,0,0,0,0,0,0,0,0,0,0,-0.0362,-0.0364,-0.0511,-0.0512,-0.0513,-0.0607,-0.0608,-0.061,-0.0645,-0.0645,-0.0645,-0.0644,-0.0746,-0.075,-0.0754,0,0,0,0,0,0,0,0,0,0,0,0,0,-0.0439,-0.0365,-0.051,-0.0542,-0.0546,-0.0607,-0.0608,-0.061,-0.0646,-0.0645,-0.0645,-0.0644,-0.0745,-0.075,-0.0754,-0.0792,0,0,-0.0768,-0.077,0,0,0,0,0,0,0,0,-0.0435,-0.0445,-0.0536,-0.054,-0.0544,-0.0614,-0.0594,-0.0671,-0.0646,-0.0608,-0.0644,-0.0644,-0.0704,-0.0712,-0.0731,-0.0797,-0.0801,-0.0769,-0.0771,-0.0773,-0.0775,0,0,0,0,0,0,0,-0.0429,-0.0441,-0.0549,-0.0537,-0.0542,-0.0553,-0.0564,-0.0609,-0.0657,-0.0611,-0.0614,-0.0625,-0.0706,-0.0726,-0.0734,-0.0803,-0.0768,-0.0773,-0.0775,-0.0777,-0.0907,-0.0908,0,0,0,0,0,0,-0.0418,-0.0436,-0.0546,-0.0552,-0.0487,-0.0556,-0.0568,-0.0592,-0.0657,-0.0666,-0.0625,-0.0626,-0.0719,-0.0728,-0.0737,-0.0787,-0.0773,-0.0778,-0.078,-0.0906,-0.0907,-0.0908,0,0,0,0,0,0,-0.0415,-0.0428,-0.0542,-0.0495,-0.051,-0.0559,-0.0586,-0.0594,-0.0615,-0.0667,-0.0677,-0.0637,-0.0719,-0.0731,-0.0778,-0.0791,-0.078,-0.0784,-0.0905,-0.0907,-0.0908,-0.0886,0,0,0,0,0,0,-0.041,-0.0426,-0.044,-0.0495,-0.0512,-0.058,-0.0587,-0.0596,-0.0622,-0.0624,-0.0681,-0.069,-0.0719,-0.0771,-0.0783,-0.0797,-0.0787,-0.0905,-0.0906,-0.0907,-0.0886,-0.0886,-0.0887,0,0,0,0,0,-0.0405,-0.043,-0.044,-0.0453,-0.053,-0.058,-0.0591,-0.0623,-0.0623,-0.0638,-0.0672,-0.0688,-0.0788,-0.0776,-0.0789,-0.0805,-0.0904,-0.0906,-0.0907,-0.0886,-0.0886,-0.0887,0,0,0,0,0,0,-0.0377,-0.0438,-0.045,-0.0493,-0.0531,-0.0586,-0.0606,-0.0622,-0.0662,-0.0662,-0.0702,-0.0715,-0.0759,-0.0787,-0.0773,-0.0846,-0.0847,-0.0851,-0.0826,-0.0827,-0.0828,-0.082,-0.0791,0,0,0,0,0,-0.0375,-0.0409,-0.0462,-0.0495,-0.0514,-0.0556,-0.0579,-0.0601,-0.0642,-0.0659,-0.0697,-0.0737,-0.0778,-0.0804,-0.0845,-0.089,-0.0904,-0.0908,-0.0908,-0.0908,-0.0912,-0.094,-0.0942,-0.0913,-0.0913,-0.0913,0,0,-0.0373,-0.0411,-0.043,-0.0491,-0.0522,-0.0559,-0.057,-0.0607,-0.0635,-0.0665,-0.0712,-0.0741,-0.079,-0.0837,-0.0859,-0.0861,-0.0923,-0.091,-0.091,-0.0914,-0.0942,-0.0944,-0.0947,-0.0914,-0.0914,-0.0914,0,0,-0.0388,-0.0419,-0.0451,-0.0483,-0.0531,-0.0559,-0.0567,-0.062,-0.064,-0.0687,-0.0711,-0.0746,-0.0815,-0.0849,-0.0875,-0.0904,-0.0921,-0.0916,-0.0918,-0.0945,-0.0947,-0.095,-0.0961,-0.0965,-0.0919,-0.0919,-0.0919,0,-0.0379,-0.0433,-0.0466,-0.0502,-0.0529,-0.0557,-0.0591,-0.0621,-0.068,-0.0698,-0.0699,-0.0787,-0.0822,-0.0878,-0.0885,-0.0905,-0.0916,-0.091,-0.0944,-0.0947,-0.0949,-0.0961,-0.0965,-0.0918,-0.0919,-0.0919,-0.0919,0,-0.0421,-0.0458,-0.0479,-0.0534,-0.0563,-0.0598,-0.0637,-0.0663,-0.0683,-0.0712,-0.0761,-0.0804,-0.0854,-0.0869,-0.0888,-0.0928,-0.0928,-0.0936,-0.0938,-0.0951,-0.0963,-0.0967,-0.0917,-0.0918,-0.0918,-0.0918,0,0,-0.042,-0.0493,-0.05,-0.0526,-0.0582,-0.0612,-0.0649,-0.0697,-0.0719,-0.076,-0.0793,-0.0851,-0.0859,-0.0889,-0.0913,-0.0936,-0.0959,-0.0942,-0.0944,-0.0945,-0.1007,-0.1001,-0.1006,-0.097,-0.0971,-0.0972,-0.1004,0,-0.0443,-0.0508,-0.0539,-0.0592,-0.0628,-0.0656,-0.0689,-0.0728,-0.0756,-0.0792,-0.0824,-0.0865,-0.0872,-0.0891,-0.0915,-0.0951,-0.0972,-0.0949,-0.1003,-0.1005,-0.0991,-0.1012,-0.1005,-0.1033,-0.1008,-0.1009,-0.101,0,-0.0478,-0.0517,-0.0573,-0.0625,-0.0641,-0.067,-0.0717,-0.075,-0.0796,-0.0815,-0.0849,-0.0872,-0.0915,-0.0913,-0.0973,-0.0957,-0.0981,-0.1002,-0.1004,-0.1011,-0.1008,-0.102,-0.1042,-0.1047,-0.1017,-0.1016,-0.1016,0,-0.0472,-0.0539,-0.0582,-0.0603,-0.0665,-0.0685,-0.0712,-0.0757,-0.0784,-0.0826,-0.0844,-0.0891,-0.0917,-0.0954,-0.099,-0.0985,-0.1047,-0.1048,-0.1066,-0.1065,-0.1078,-0.1077,-0.1105,-0.1092,-0.1092,-0.1092,-0.1092,0,-0.0495,-0.0528,-0.058,-0.0607,-0.0646,-0.0682,-0.072,-0.075,-0.079,-0.0824,-0.0851,-0.0883,-0.0929,-0.0967,-0.0996,-0.1042,-0.1053,-0.1071,-0.1079,-0.1069,-0.1067,-0.1086,-0.1086,-0.1093,-0.1093,-0.1093,-0.1092,0,-0.0495,-0.0532,-0.058,-0.0635,-0.0649,-0.0676,-0.0724,-0.0752,-0.0782,-0.0824,-0.0837,-0.0885,-0.0931,-0.0971,-0.1032,-0.1052,-0.11,-0.1108,-0.1084,-0.1088,-0.1104,-0.1102,-0.1147,-0.1155,-0.1135,-0.1135,-0.1135,0,-0.0508,-0.0534,-0.0591,-0.0615,-0.0642,-0.068,-0.0708,-0.0746,-0.0774,-0.0828,-0.085,-0.0898,-0.0939,-0.1012,-0.1053,-0.1101,-0.1112,-0.1124,-0.1119,-0.1109,-0.1113,-0.1112,-0.1115,-0.1124,-0.1124,-0.1124,-0.1124,0,-0.0526,-0.0542,-0.0581,-0.0626,-0.0658,-0.0696,-0.0734,-0.0753,-0.0798,-0.0829,-0.0876,-0.0907,-0.097,-0.1018,-0.1071,-0.1101,-0.1121,-0.1125,-0.1132,-0.1123,-0.1109,-0.1118,-0.1086,-0.1124,-0.1124,-0.1124,-0.1124,-0.1124,-0.0534,-0.0559,-0.0603,-0.0646,-0.0678,-0.0714,-0.0743,-0.0777,-0.0816,-0.0869,-0.0889,-0.0938,-0.0985,-0.1057,-0.1087,-0.1128,-0.1131,-0.114,-0.1143,-0.1145,-0.1144,-0.1101,-0.1137,-0.1137,-0.1137,-0.1137,-0.1137,0,-0.0554,-0.0584,-0.0623,-0.0675,-0.0709,-0.0723,-0.0767,-0.0795,-0.0837,-0.0878,-0.0918,-0.0973,-0.102,-0.1066,-0.1116,-0.1139,-0.115,-0.1151,-0.115,-0.1158,-0.1138,-0.1127,-0.1142,-0.1142,-0.1142,-0.1142,-0.1142,-0.1142,-0.0569,-0.0612,-0.0635,-0.0696,-0.0727,-0.0773,-0.0797,-0.0831,-0.0865,-0.0924,-0.0963,-0.0992,-0.1036,-0.109,-0.1135,-0.1147,-0.1165,-0.1164,-0.1179,-0.116,-0.1159,-0.1158,-0.1148,-0.1167,-0.1167,-0.1196,-0.1196,-0.1196]}]]